| time (UTC) | temp F | wind direction | speed knots | gust knots | rain 1hr in | rain 24hr in | rain mn in | humidity % | barometer mb |
| 20260507064726 | 38 | 165 | 7.0 | 13.0 | 0.09 | 0.21 | 0.21 | 83 | |
| 20260507064236 | 38 | 153 | 7.0 | 15.6 | 0.08 | 0.20 | 0.20 | 84 | |
| 20260507063725 | 38 | 139 | 5.2 | 15.6 | 0.08 | 0.20 | 0.20 | 85 | |
| 20260507063235 | 38 | 141 | 1.7 | 6.1 | 0.07 | 0.19 | 0.19 | 84 | |
| 20260507062728 | 38 | 96 | 2.6 | 6.1 | 0.06 | 0.18 | 0.18 | 85 | |
| 20260507062219 | 38 | 122 | 2.6 | 6.1 | 0.05 | 0.17 | 0.17 | 85 | |
| 20260507061727 | 38 | 136 | 2.6 | 7.0 | 0.05 | 0.16 | 0.16 | 85 | |
| 20260507061218 | 0 | 166 | 1.7 | 5.2 | 0.03 | 0.14 | 0.14 | 86 | |
| 20260507060729 | 38 | 106 | 3.5 | 5.2 | 0.03 | 0.14 | 0.14 | 86 | |
| 20260507060219 | 39 | 42 | 0.9 | 2.6 | 0.03 | 0.14 | 0.14 | 85 | |
| 20260507055729 | 39 | 130 | 0.0 | 3.5 | 0.02 | 0.13 | 0.13 | 86 | |
| 20260507055219 | 39 | 307 | 0.9 | 3.5 | 0.02 | 0.13 | 0.13 | 85 | |
| 20260507054224 | 39 | 270 | 1.7 | 2.6 | 0.01 | 0.12 | 0.12 | 84 | |
| 20260507053736 | 39 | 213 | 0.9 | 3.5 | 0.01 | 0.12 | 0.12 | 84 | |
| 20260507053225 | 39 | 80 | 0.0 | 6.1 | 0.02 | 0.12 | 0.12 | 83 | |
| 20260507052736 | 39 | 85 | 1.7 | 6.1 | 0.02 | 0.12 | 0.12 | 82 | |
| 20260507052226 | 39 | 146 | 1.7 | 6.1 | 0.02 | 0.12 | 0.12 | 85 | |
| 20260507051717 | 39 | 165 | 1.7 | 4.3 | 0.01 | 0.11 | 0.11 | 85 | |
| 20260507051226 | 39 | 173 | 0.9 | 3.5 | 0.02 | 0.11 | 0.11 | 85 | |
| 20260507050735 | 39 | 211 | 1.7 | 5.2 | 0.03 | 0.11 | 0.11 | 85 | |
| 20260507050226 | 39 | 237 | 1.7 | 6.1 | 0.05 | 0.11 | 0.11 | 85 | |
| 20260507045721 | 39 | 180 | 2.6 | 6.1 | 0.07 | 0.11 | 0.11 | 85 | |
| 20260507045232 | 39 | 173 | 0.9 | 5.2 | 0.09 | 0.11 | 0.11 | 85 | |
| 20260507044236 | 38 | 132 | 1.7 | 5.2 | 0.10 | 0.11 | 0.11 | 88 | |
| 20260507043727 | 38 | 168 | 2.6 | 5.2 | 0.11 | 0.11 | 0.11 | 88 | |
| 20260507042728 | 37 | 105 | 4.3 | 8.7 | 0.10 | 0.10 | 0.10 | 89 | |
| 20260507042219 | 37 | 96 | 5.2 | 8.7 | 0.10 | 0.10 | 0.10 | 89 | |
| 20260507041730 | 37 | 189 | 4.3 | 9.6 | 0.10 | 0.10 | 0.10 | 89 | |
| 20260507040737 | 37 | 123 | 6.1 | 12.2 | 0.08 | 0.08 | 0.08 | 88 | |
| 20260507040227 | 0 | 163 | 7.0 | 12.2 | 0.06 | 0.06 | 0.06 | ||
| 20260507035718 | 39 | 166 | 3.5 | 10.4 | 0.04 | 0.04 | 0.04 | ||
| 20260507035229 | 39 | 121 | 3.5 | 13.0 | 0.02 | 0.02 | 0.02 | 87 | |
| 20260507034720 | 40 | 215 | 7.0 | 19.1 | 0.01 | 0.01 | 0.01 | 85 | |
| 20260507034231 | 40 | 206 | 8.7 | 19.1 | 0.01 | 0.01 | 0.01 | 82 | |
| 20260507033721 | 42 | 184 | 6.1 | 13.0 | 0.00 | 0.00 | 0.00 | 73 | |
| 20260507033229 | 42 | 217 | 9.6 | 13.0 | 0.00 | 0.00 | 0.00 | 71 | |
| 20260507032724 | 42 | 211 | 4.3 | 7.0 | 0.00 | 0.00 | 0.00 | 73 | |
| 20260507032232 | 42 | 200 | 2.6 | 9.6 | 0.00 | 0.00 | 0.00 | 74 | |
| 20260507031722 | 42 | 167 | 3.5 | 13.0 | 0.00 | 0.00 | 0.00 | 75 | |
| 20260507031234 | 42 | 148 | 7.8 | 13.0 | 0.00 | 0.00 | 0.00 | 72 | |
| 20260507030722 | 43 | 117 | 7.8 | 13.9 | 0.00 | 0.00 | 0.00 | 71 | |
| 20260507030233 | 43 | 120 | 7.0 | 15.6 | 0.00 | 0.00 | 0.00 | 70 | |
| 20260507025723 | 44 | 156 | 7.8 | 12.2 | 0.00 | 0.00 | 0.00 | 68 | |
| 20260507025234 | 44 | 201 | 5.2 | 9.6 | 0.00 | 0.00 | 0.00 | 67 | |
| 20260507024723 | 44 | 148 | 5.2 | 9.6 | 0.00 | 0.00 | 0.00 | 67 | |
| 20260507023729 | 43 | 209 | 5.2 | 8.7 | 0.00 | 0.00 | 0.00 | 67 | |
| 20260507023218 | 43 | 128 | 3.5 | 9.6 | 0.00 | 0.00 | 0.00 | 68 | |
| 20260507022218 | 44 | 136 | 1.7 | 7.0 | 0.00 | 0.00 | 0.00 | 68 | |
| 20260507021727 | 44 | 201 | 2.6 | 11.3 | 0.00 | 0.00 | 0.00 | 67 | |
| 20260507021236 | 44 | 194 | 7.0 | 11.3 | 0.00 | 0.00 | 0.00 | 66 | |
| 20260507020726 | 44 | 192 | 2.6 | 7.8 | 0.00 | 0.00 | 0.00 | 67 | |
| 20260507020236 | 44 | 180 | 2.6 | 8.7 | 0.00 | 0.00 | 0.00 | 67 | |
| 20260507015725 | 44 | 131 | 5.2 | 8.7 | 0.00 | 0.00 | 0.00 | 66 | |
| 20260507015220 | 44 | 184 | 7.0 | 10.4 | 0.00 | 0.00 | 0.00 | 66 | |
| 20260507014730 | 44 | 166 | 7.0 | 10.4 | 0.00 | 0.00 | 0.00 | 65 | |
| 20260507014220 | 44 | 211 | 4.3 | 8.7 | 0.00 | 0.00 | 0.00 | 68 | |
| 20260507013730 | 44 | 155 | 3.5 | 8.7 | 0.00 | 0.00 | 0.00 | 67 | |
| 20260507012733 | 44 | 178 | 5.2 | 11.3 | 0.00 | 0.00 | 0.00 | 70 | |
| 20260507012223 | 44 | 171 | 7.0 | 11.3 | 0.00 | 0.00 | 0.00 | 71 | |
| 20260507011733 | 43 | 146 | 1.7 | 7.0 | 0.00 | 0.00 | 0.00 | 75 | |
| 20260507011222 | 43 | 185 | 3.5 | 7.0 | 0.00 | 0.00 | 0.00 | 74 | |
| 20260507010735 | 43 | 156 | 3.5 | 11.3 | 0.00 | 0.00 | 0.00 | 76 | |
| 20260507010224 | 42 | 185 | 4.3 | 13.0 | 0.00 | 0.00 | 0.00 | 76 | |
| 20260507005733 | 43 | 217 | 3.5 | 15.6 | 0.00 | 0.00 | 0.00 | 73 | |
| 20260507004226 | 42 | 65 | 0.9 | 6.1 | 0.00 | 0.00 | 0.00 | 80 | |
| 20260507003735 | 42 | 27 | 1.7 | 8.7 | 0.00 | 0.00 | 0.00 | 81 | |
| 20260507003224 | 42 | 6 | 6.1 | 8.7 | 0.00 | 0.00 | 0.00 | 79 | |
| 20260507002735 | 42 | 356 | 5.2 | 8.7 | 0.00 | 0.00 | 0.00 | 81 | |
| 20260507002224 | 42 | 360 | 6.1 | 8.7 | 0.00 | 0.00 | 0.00 | 78 | |
| 20260507001719 | 42 | 356 | 3.5 | 6.1 | 0.00 | 0.00 | 0.00 | 78 | |
| 20260507001229 | 42 | 8 | 4.3 | 6.1 | 0.00 | 0.00 | 0.00 | 79 | |
| 20260507000718 | 42 | 13 | 3.5 | 6.1 | 0.00 | 0.00 | 0.00 | 80 | |
| 20260507000229 | 42 | 360 | 4.3 | 7.8 | 0.00 | 0.00 | 0.00 | 80 | |
| 20260506235720 | 42 | 343 | 4.3 | 7.8 | 0.00 | 0.00 | 0.00 | 80 | |
| 20260506235231 | 42 | 308 | 4.3 | 7.0 | 0.00 | 0.00 | 0.00 | 79 | |
| 20260506234722 | 42 | 327 | 2.6 | 7.0 | 0.00 | 0.00 | 0.00 | 78 | |
| 20260506234233 | 42 | 307 | 3.5 | 7.8 | 0.00 | 0.00 | 0.00 | 79 | |
| 20260506233727 | 42 | 339 | 4.3 | 8.7 | 0.00 | 0.00 | 0.00 | 83 | |
| 20260506233218 | 43 | 8 | 6.1 | 13.0 | 0.00 | 0.00 | 0.00 | 78 | |
| 20260506232728 | 46 | 10 | 7.0 | 13.0 | 0.00 | 0.00 | 0.00 | 73 | |
| 20260506231730 | 46 | 179 | 2.6 | 8.7 | 0.00 | 0.00 | 0.00 | 58 | |
| 20260506231220 | 46 | 148 | 4.3 | 8.7 | 0.00 | 0.00 | 0.00 | 57 | |
| 20260506230728 | 46 | 175 | 3.5 | 7.8 | 0.00 | 0.00 | 0.00 | 59 | |
| 20260506230220 | 46 | 148 | 1.7 | 7.8 | 0.00 | 0.00 | 0.00 | 58 | |
| 20260506225222 | 46 | 173 | 4.3 | 10.4 | 0.00 | 0.00 | 0.00 | 57 | |
| 20260506224735 | 46 | 166 | 2.6 | 8.7 | 0.00 | 0.00 | 0.00 | 58 | |
| 20260506224223 | 47 | 153 | 3.5 | 7.8 | 0.00 | 0.00 | 0.00 | 57 | |
| 20260506223224 | 47 | 256 | 4.3 | 7.8 | 0.00 | 0.00 | 0.00 | 57 | |
| 20260506222225 | 47 | 202 | 4.3 | 7.8 | 0.00 | 0.00 | 0.00 | 58 | |
| 20260506221735 | 47 | 164 | 3.5 | 8.7 | 0.00 | 0.00 | 0.00 | 59 | |
| 20260506220718 | 46 | 219 | 7.0 | 10.4 | 0.00 | 0.00 | 0.00 | 58 | |
| 20260506215720 | 46 | 135 | 6.1 | 11.3 | 0.00 | 0.00 | 0.00 | 58 | |
| 20260506215233 | 46 | 114 | 7.0 | 10.4 | 0.00 | 0.00 | 0.00 | 59 | |
| 20260506214723 | 46 | 153 | 6.1 | 12.2 | 0.00 | 0.00 | 0.00 | 59 | |
| 20260506214233 | 46 | 268 | 7.8 | 12.2 | 0.00 | 0.00 | 0.00 | 59 | |
| 20260506213723 | 46 | 154 | 6.1 | 12.2 | 0.00 | 0.00 | 0.00 | 60 | |
| 20260506213233 | 46 | 168 | 7.0 | 12.2 | 0.00 | 0.00 | 0.00 | 61 | |
| 20260506212723 | 45 | 161 | 7.8 | 13.9 | 0.00 | 0.00 | 0.00 | 61 | |
| 20260506212234 | 45 | 209 | 8.7 | 15.6 | 0.00 | 0.00 | 0.00 | 61 | |
| 20260506210729 | 45 | 175 | 4.3 | 12.2 | 0.00 | 0.00 | 0.00 | 63 | |
| 20260506210222 | 45 | 179 | 5.2 | 11.3 | 0.00 | 0.00 | 0.00 | 63 | |
| 20260506205732 | 45 | 192 | 6.1 | 11.3 | 0.00 | 0.00 | 0.00 | 62 | |
| 20260506205223 | 45 | 195 | 6.1 | 11.3 | 0.00 | 0.00 | 0.00 | 63 | |
| 20260506204732 | 45 | 164 | 4.3 | 9.6 | 0.00 | 0.00 | 0.00 | 63 | |
| 20260506204224 | 45 | 160 | 1.7 | 10.4 | 0.00 | 0.00 | 0.00 | 67 | |
| 20260506203733 | 45 | 58 | 4.3 | 11.3 | 0.00 | 0.00 | 0.00 | 66 | |
| 20260506203224 | 45 | 194 | 5.2 | 8.7 | 0.00 | 0.00 | 0.00 | 66 | |
| 20260506202736 | 45 | 129 | 3.5 | 7.0 | 0.00 | 0.00 | 0.00 | 70 | |
| 20260506202230 | 44 | 314 | 2.6 | 6.1 | 0.00 | 0.00 | 0.00 | 69 | |
| 20260506201721 | 44 | 15 | 2.6 | 6.1 | 0.00 | 0.00 | 0.00 | 73 | |
| 20260506201230 | 44 | 333 | 3.5 | 6.1 | 0.00 | 0.00 | 0.00 | 73 | |
| 20260506200719 | 44 | 346 | 3.5 | 6.1 | 0.00 | 0.00 | 0.00 | 76 | |
| 20260506200230 | 43 | 19 | 4.3 | 6.1 | 0.00 | 0.00 | 0.00 | 76 | |
| 20260506195719 | 43 | 350 | 2.6 | 7.0 | 0.00 | 0.00 | 0.00 | 78 | |
| 20260506195229 | 43 | 349 | 5.2 | 7.0 | 0.00 | 0.00 | 0.00 | 77 | |
| 20260506194719 | 43 | 330 | 3.5 | 5.2 | 0.00 | 0.00 | 0.00 | 77 | |
| 20260506194230 | 43 | 264 | 1.7 | 5.2 | 0.00 | 0.00 | 0.00 | 77 | |
| 20260506193725 | 42 | 300 | 2.6 | 6.1 | 0.00 | 0.00 | 0.00 | 77 | |
| 20260506192727 | 43 | 309 | 3.5 | 6.1 | 0.00 | 0.00 | 0.00 | 76 | |
| 20260506192218 | 43 | 285 | 2.6 | 5.2 | 0.00 | 0.00 | 0.00 | 77 | |
| 20260506191729 | 42 | 21 | 1.7 | 4.3 | 0.00 | 0.00 | 0.00 | 76 | |
| 20260506191218 | 42 | 250 | 0.0 | 6.1 | 0.00 | 0.00 | 0.00 | 78 | |
| 20260506190728 | 42 | 304 | 3.5 | 6.1 | 0.00 | 0.00 | 0.00 | 77 | |
| 20260506190218 | 42 | 253 | 2.6 | 6.1 | 0.00 | 0.00 | 0.00 | 77 | |
| 20260506185726 | 42 | 258 | 2.6 | 5.2 | 0.00 | 0.00 | 0.00 | 77 | |
| 20260506185222 | 42 | 313 | 3.5 | 5.2 | 0.00 | 0.00 | 0.00 | 76 | |
| 20260506184732 | 42 | 52 | 2.6 | 5.2 | 0.00 | 0.00 | 0.00 | 77 | |
| 20260506183736 | 41 | 23 | 2.6 | 5.2 | 0.00 | 0.00 | 0.00 | 77 | |
| 20260506183225 | 41 | 338 | 3.5 | 5.2 | 0.00 | 0.00 | 0.00 | 78 | |
| 20260506182736 | 41 | 34 | 1.7 | 5.2 | 0.00 | 0.00 | 0.00 | 78 | |
| 20260506182227 | 40 | 32 | 3.5 | 5.2 | 0.00 | 0.00 | 0.00 | 78 | |
| 20260506181736 | 40 | 325 | 2.6 | 5.2 | 0.00 | 0.00 | 0.00 | 79 | |
| 20260506181228 | 40 | 18 | 3.5 | 6.1 | 0.00 | 0.00 | 0.00 | 80 | |
| 20260506180223 | 40 | 344 | 3.5 | 5.2 | 0.00 | 0.00 | 0.00 | 79 | |
| 20260506175734 | 40 | 346 | 2.6 | 4.3 | 0.00 | 0.00 | 0.00 | 80 | |
| 20260506175225 | 40 | 352 | 2.6 | 6.1 | 0.00 | 0.00 | 0.00 | 80 | |
| 20260506174734 | 40 | 348 | 4.3 | 6.1 | 0.00 | 0.00 | 0.00 | 80 | |
| 20260506174223 | 39 | 10 | 3.5 | 5.2 | 0.00 | 0.00 | 0.00 | 80 | |
| 20260506173735 | 39 | 344 | 3.5 | 5.2 | 0.00 | 0.00 | 0.00 | 80 | |
| 20260506172737 | 39 | 346 | 2.6 | 5.2 | 0.00 | 0.00 | 0.00 | 80 | |
| 20260506172231 | 39 | 354 | 3.5 | 6.1 | 0.00 | 0.00 | 0.00 | 80 | |
| 20260506171233 | 39 | 330 | 3.5 | 4.3 | 0.00 | 0.00 | 0.00 | 81 | |
| 20260506170725 | 39 | 358 | 2.6 | 5.2 | 0.00 | 0.00 | 0.00 | 81 | |
| 20260506170234 | 38 | 7 | 1.7 | 5.2 | 0.00 | 0.00 | 0.00 | 81 | |
| 20260506165237 | 38 | 353 | 1.7 | 4.3 | 0.00 | 0.00 | 0.00 | 81 | |
| 20260506164219 | 38 | 339 | 2.6 | 4.3 | 0.00 | 0.00 | 0.00 | 81 | |
| 20260506163729 | 38 | 34 | 2.6 | 4.3 | 0.00 | 0.00 | 0.00 | 81 | |
| 20260506163223 | 38 | 9 | 3.5 | 6.1 | 0.00 | 0.00 | 0.00 | 81 | |
| 20260506162734 | 38 | 354 | 3.5 | 6.1 | 0.00 | 0.00 | 0.00 | 81 | |
| 20260506162224 | 38 | 13 | 4.3 | 6.1 | 0.00 | 0.00 | 0.00 | 81 | |
| 20260506161733 | 38 | 349 | 3.5 | 4.3 | 0.00 | 0.00 | 0.00 | 81 | |
| 20260506161224 | 38 | 3 | 2.6 | 4.3 | 0.00 | 0.00 | 0.00 | 81 | |
| 20260506160734 | 38 | 24 | 3.5 | 5.2 | 0.00 | 0.00 | 0.00 | 81 | |
| 20260506160225 | 38 | 4 | 3.5 | 5.2 | 0.00 | 0.00 | 0.00 | 81 | |
| 20260506155736 | 38 | 349 | 3.5 | 6.1 | 0.00 | 0.00 | 0.00 | 81 | |
| 20260506155226 | 38 | 350 | 3.5 | 6.1 | 0.00 | 0.00 | 0.00 | 81 | |
| 20260506154722 | 38 | 340 | 2.6 | 4.3 | 0.00 | 0.00 | 0.00 | 81 | |
| 20260506154231 | 38 | 359 | 1.7 | 4.3 | 0.00 | 0.00 | 0.00 | 80 | |
| 20260506153234 | 38 | 350 | 2.6 | 4.3 | 0.00 | 0.00 | 0.00 | 80 | |
| 20260506152724 | 38 | 56 | 3.5 | 4.3 | 0.00 | 0.00 | 0.00 | 80 | |
| 20260506152236 | 38 | 20 | 2.6 | 4.3 | 0.00 | 0.00 | 0.00 | 80 | |
| 20260506151725 | 38 | 25 | 1.7 | 5.2 | 0.00 | 0.00 | 0.00 | 79 | |
| 20260506150728 | 38 | 25 | 3.5 | 4.3 | 0.00 | 0.00 | 0.00 | 79 | |
| 20260506150220 | 38 | 22 | 1.7 | 2.6 | 0.00 | 0.00 | 0.00 | 78 | |
| 20260506145731 | 38 | 323 | 1.7 | 2.6 | 0.00 | 0.00 | 0.00 | 78 | |
| 20260506145221 | 38 | 337 | 0.9 | 2.6 | 0.00 | 0.00 | 0.00 | 77 | |
| 20260506144224 | 38 | 328 | 0.0 | 1.7 | 0.00 | 0.00 | 0.00 | 76 | |
| 20260506143734 | 38 | 4 | 0.0 | 0.0 | 0.00 | 0.00 | 0.00 | 75 | |
| 20260506143224 | 38 | 4 | 0.0 | 0.0 | 0.00 | 0.00 | 0.00 | 75 | |
| 20260506142734 | 38 | 4 | 0.0 | 0.0 | 0.00 | 0.00 | 0.00 | 75 | |
| 20260506142225 | 39 | 4 | 0.0 | 4.3 | 0.00 | 0.00 | 0.00 | 75 | |
| 20260506141719 | 39 | 356 | 1.7 | 4.3 | 0.00 | 0.00 | 0.00 | 74 | |
| 20260506141230 | 39 | 331 | 1.7 | 3.5 | 0.00 | 0.00 | 0.00 | 74 | |
| 20260506140721 | 39 | 327 | 2.6 | 3.5 | 0.00 | 0.00 | 0.00 | 73 | |
| 20260506140231 | 39 | 333 | 2.6 | 3.5 | 0.00 | 0.00 | 0.00 | 73 | |
| 20260506135721 | 39 | 287 | 1.7 | 2.6 | 0.00 | 0.00 | 0.00 | 73 | |
| 20260506135232 | 39 | 324 | 1.7 | 2.6 | 0.00 | 0.00 | 0.00 | 72 | |
| 20260506134721 | 40 | 318 | 1.7 | 3.5 | 0.00 | 0.00 | 0.00 | 71 | |
| 20260506134231 | 40 | 10 | 0.0 | 5.2 | 0.00 | 0.00 | 0.00 | 71 | |
| 20260506133722 | 40 | 9 | 3.5 | 5.2 | 0.00 | 0.00 | 0.00 | 70 | |
| 20260506133236 | 40 | 348 | 2.6 | 3.5 | 0.00 | 0.00 | 0.00 | 69 | |
| 20260506132726 | 41 | 2 | 0.0 | 3.5 | 0.00 | 0.00 | 0.00 | 68 | |
| 20260506132236 | 41 | 44 | 0.0 | 6.1 | 0.00 | 0.00 | 0.00 | 68 | |
| 20260506131727 | 41 | 156 | 0.9 | 8.7 | 0.00 | 0.00 | 0.00 | 67 | |
| 20260506131219 | 41 | 145 | 4.3 | 8.7 | 0.00 | 0.00 | 0.00 | 68 | |
| 20260506130728 | 41 | 107 | 2.6 | 5.2 | 0.00 | 0.00 | 0.00 | 68 | |
| 20260506130217 | 41 | 125 | 2.6 | 6.1 | 0.00 | 0.00 | 0.00 | 68 | |
| 20260506125727 | 41 | 173 | 1.7 | 7.0 | 0.00 | 0.00 | 0.00 | 67 | |
| 20260506125222 | 41 | 155 | 2.6 | 6.1 | 0.00 | 0.00 | 0.00 | 67 | |
| 20260506124733 | 41 | 163 | 1.7 | 5.2 | 0.00 | 0.00 | 0.00 | 66 | |
| 20260506124223 | 41 | 186 | 0.9 | 7.0 | 0.00 | 0.00 | 0.00 | 66 | |
| 20260506123734 | 41 | 166 | 4.3 | 10.4 | 0.00 | 0.00 | 0.00 | 67 | |
| 20260506123223 | 41 | 109 | 5.2 | 11.3 | 0.00 | 0.00 | 0.00 | 66 | |
| 20260506122733 | 41 | 186 | 4.3 | 8.7 | 0.00 | 0.00 | 0.00 | 66 | |
| 20260506122224 | 41 | 174 | 3.5 | 7.8 | 0.00 | 0.00 | 0.00 | 67 | |
| 20260506121732 | 41 | 120 | 3.5 | 7.0 | 0.00 | 0.00 | 0.00 | 66 | |
| 20260506121223 | 41 | 165 | 3.5 | 12.2 | 0.00 | 0.00 | 0.00 | 66 | |
| 20260506120718 | 41 | 112 | 5.2 | 15.6 | 0.00 | 0.00 | 0.00 | 66 | |
| 20260506115721 | 41 | 148 | 6.1 | 16.5 | 0.00 | 0.00 | 0.00 | 67 | |
| 20260506114721 | 41 | 108 | 7.0 | 13.0 | 0.00 | 0.00 | 0.00 | 67 | |
| 20260506113721 | 41 | 136 | 4.3 | 12.2 | 0.00 | 0.00 | 0.00 | 68 | |
| 20260506113230 | 40 | 175 | 5.2 | 12.2 | 0.00 | 0.00 | 0.00 | 69 | |
| 20260506112231 | 40 | 138 | 7.0 | 14.8 | 0.00 | 0.00 | 0.00 | 69 | |
| 20260506111721 | 40 | 162 | 8.7 | 16.5 | 0.00 | 0.00 | 0.00 | 69 | |
| 20260506111235 | 40 | 173 | 7.8 | 13.9 | 0.00 | 0.00 | 0.00 | 69 | |
| 20260506110235 | 40 | 159 | 7.0 | 12.2 | 0.00 | 0.00 | 0.00 | 69 | |
| 20260506105724 | 40 | 165 | 7.8 | 13.9 | 0.00 | 0.00 | 0.00 | 69 | |
| 20260506104726 | 41 | 173 | 7.0 | 13.9 | 0.00 | 0.00 | 0.00 | 69 | |
| 20260506104236 | 40 | 188 | 7.0 | 15.6 | 0.00 | 0.00 | 0.00 | 68 | |
| 20260506103724 | 40 | 152 | 7.8 | 15.6 | 0.00 | 0.00 | 0.00 | 69 | |
| 20260506103234 | 40 | 165 | 7.8 | 13.0 | 0.00 | 0.00 | 0.00 | 68 | |
| 20260506102724 | 40 | 202 | 6.1 | 10.4 | 0.00 | 0.00 | 0.00 | 69 | |
| 20260506102218 | 40 | 175 | 6.1 | 14.8 | 0.00 | 0.00 | 0.00 | 69 | |
| 20260506101219 | 40 | 183 | 8.7 | 14.8 | 0.00 | 0.00 | 0.00 | 69 | |
| 20260506100728 | 40 | 188 | 7.8 | 13.9 | 0.00 | 0.00 | 0.00 | 69 | |
| 20260506100218 | 40 | 179 | 8.7 | 18.2 | 0.00 | 0.00 | 0.00 | 70 | |
| 20260506094730 | 40 | 183 | 7.8 | 16.5 | 0.00 | 0.00 | 0.00 | 69 | |
| 20260506094220 | 40 | 164 | 8.7 | 14.8 | 0.00 | 0.00 | 0.00 | 70 | |
| 20260506093731 | 40 | 179 | 7.0 | 20.0 | 0.00 | 0.00 | 0.00 | 69 | |
| 20260506093226 | 40 | 222 | 9.6 | 20.0 | 0.00 | 0.00 | 0.00 | 68 | |
| 20260506092227 | 41 | 198 | 7.8 | 20.9 | 0.00 | 0.00 | 0.00 | 66 | |
| 20260506091717 | 41 | 192 | 9.6 | 20.9 | 0.00 | 0.00 | 0.00 | 65 | |
| 20260506091228 | 41 | 189 | 7.8 | 14.8 | 0.00 | 0.00 | 0.00 | 64 | |
| 20260506090719 | 41 | 189 | 4.3 | 13.9 | 0.00 | 0.00 | 0.00 | 64 | |
| 20260506090231 | 41 | 153 | 8.7 | 14.8 | 0.00 | 0.00 | 0.00 | 64 | |
| 20260506085721 | 41 | 187 | 9.6 | 14.8 | 0.00 | 0.00 | 0.00 | 64 | |
| 20260506085232 | 41 | 157 | 7.8 | 16.5 | 0.00 | 0.00 | 0.00 | 64 | |
| 20260506084727 | 42 | 161 | 9.6 | 18.2 | 0.00 | 0.00 | 0.00 | 64 | |
| 20260506084217 | 42 | 178 | 10.4 | 22.6 | 0.00 | 0.00 | 0.00 | 63 | |
| 20260506083728 | 42 | 155 | 11.3 | 21.7 | 0.00 | 0.00 | 0.00 | 63 | |
| 20260506083218 | 42 | 146 | 13.0 | 21.7 | 0.00 | 0.00 | 0.00 | 62 | |
| 20260506082729 | 42 | 155 | 12.2 | 19.1 | 0.00 | 0.00 | 0.00 | 62 | |
| 20260506081733 | 42 | 139 | 9.6 | 20.9 | 0.00 | 0.00 | 0.00 | 62 | |
| 20260506081223 | 42 | 140 | 12.2 | 16.5 | 0.00 | 0.00 | 0.00 | 62 | |
| 20260506080734 | 42 | 148 | 9.6 | 17.4 | 0.00 | 0.00 | 0.00 | 62 | |
| 20260506080228 | 42 | 165 | 11.3 | 17.4 | 0.00 | 0.00 | 0.00 | 62 | |
| 20260506072218 | 42 | 169 | 7.8 | 16.5 | 0.00 | 0.00 | 0.00 | 61 | |
| 20260506071728 | 42 | 156 | 10.4 | 16.5 | 0.00 | 0.00 | 0.00 | 62 | |
| 20260506071223 | 42 | 185 | 8.7 | 15.6 | 0.00 | 0.00 | 0.00 | 62 | |
| 20260506070733 | 42 | 140 | 8.7 | 15.6 | 0.00 | 0.00 | 0.00 | 62 | |
| 20260506070223 | 42 | 129 | 10.4 | 19.1 | 0.00 | 0.00 | 0.00 | 61 |